COSMOS 2516 (753)

Last updated on June 23, 2019, 3:41 a.m. UTC

1 41554U 16032A   19173.87871397 -.00000027  00000-0  00000+0 0  9991
2 41554  64.2633 279.4613 0012693 213.7848   9.5603  2.13101699 23854
UTC
Height (km)
Latitude
Longitude
Inclination
Orbital Period
UTC large
Height (km)
Speed (km/s)
/
Latitude / Longitude
Inclination (degrees)
Orbital Period (minutes)
Azimuth
Elevation
Range (km)
Doppler Factor
iOS Compass Heading
iOS Angle

Next 30 passes for location: Hong Kong

Rise time Rise Azimuth (degrees) Set time Set Azimuth (degrees) Duration Max altitude (degrees)

No matching passes for this satellites